Home   Weather   Nanpara   Past weeks
Flag for India

Past Weather in Nanpara, Uttar Pradesh, India — Yesterday and Last 2 Weeks

Now
84 °F

Light rain. Partly cloudy.


Feels Like: 101 °F
Forecast: 86 / 78 °F
Wind: 3 mph from South

Location: Lucknow / Amausi

Current Time: Jul 24, 2019 at 3:45:20 am

Latest Report: Jul 24, 2019 at 3:00 am


Visibility: 1 mi

Pressure: 29.45 "Hg

Humidity: 94%

Dew Point: 82 °F

Location of NanparaLocation

Past Weather in Nanpara — Graph

°F

Nanpara Temperature Yesterday

Maximum temperature yesterday: 95 °F (at 12:30 pm)
Minimum temperature yesterday: 86 °F (at 12:00 am)
Average temperature yesterday: 89 °F

High & Low Weather Summary for the Past Weeks

 TemperatureHumidityPressure
High97 °F (Jul 18, 4:00 pm)100% (Jul 9, 1:30 am)29.65 "Hg (Jul 9, 1:30 am)
Low72 °F (Jul 11, 9:00 am)50% (Jul 19, 2:30 pm)29.36 "Hg (Jul 10, 5:00 pm)
Average86 °F81%29.52 "Hg
* Reported Jul 9 1:30 am — Jul 24 2:00 am, Nanpara. Weather by CustomWeather, © 2019

Note: Actual official high and low records may vary slightly from our data, if they occured in-between our weather recording intervals... More about our weather records

Advertising

Nanpara Weather History for the Previous 24 Hours

Scroll right to see more
 ConditionsComfort  
Time TempWeatherWind HumidityBarometerVisibility
2:00 am
Wed, Jul 24
86 °FFog.2 mph89%29.47 "Hg2 mi
1:30 am86 °FFog.2 mph89%29.47 "Hg2 mi
1:00 am86 °FFog.2 mph94%29.47 "Hg2 mi
12:30 am86 °FFog.2 mph94%29.47 "Hg2 mi
12:00 am86 °FFog.No wind94%29.50 "Hg2 mi
11:30 pm
Tue, Jul 23
86 °FFog.No wind94%29.50 "Hg2 mi
11:00 pm86 °FFog.No wind89%29.50 "Hg2 mi
10:30 pm86 °FFog.No wind89%29.53 "Hg2 mi
10:00 pm86 °FFog.2 mph89%29.50 "Hg2 mi
9:30 pm86 °FFog.2 mph84%29.50 "Hg2 mi
9:00 pm86 °FFog.5 mph89%29.50 "Hg2 mi
8:30 pm86 °FFog.2 mph89%29.50 "Hg2 mi
7:30 pm90 °FMostly cloudy.6 mph79%29.47 "Hg2 mi
7:00 pm90 °FMore clouds than sun.3 mph84%29.47 "Hg2 mi
6:30 pm93 °FMore clouds than sun.2 mph63%29.45 "Hg2 mi
5:30 pm93 °FMore clouds than sun.2 mph67%29.45 "Hg2 mi
5:00 pm93 °FMore clouds than sun.2 mph67%29.45 "Hg2 mi
4:30 pm93 °FMore clouds than sun.3 mph67%29.45 "Hg2 mi
4:00 pm95 °FMore clouds than sun.5 mph63%29.47 "Hg2 mi
3:30 pm93 °FMore clouds than sun.3 mph67%29.47 "Hg2 mi
3:00 pm93 °FMore clouds than sun.5 mph67%29.47 "Hg2 mi
2:30 pm93 °FMore clouds than sun.6 mph67%29.47 "Hg2 mi
2:00 pm93 °FBroken clouds.6 mph67%29.50 "Hg2 mi
1:30 pm95 °FScattered clouds.7 mph60%29.50 "Hg2 mi
1:00 pm95 °FBroken clouds.8 mph60%29.50 "Hg2 mi
12:30 pm95 °FBroken clouds.6 mph63%29.50 "Hg2 mi
12:00 pm93 °FBroken clouds.10 mph67%29.53 "Hg2 mi
11:30 am93 °FBroken clouds.7 mph67%29.53 "Hg2 mi
11:00 am93 °FBroken clouds.6 mph67%29.56 "Hg2 mi
10:30 am91 °FBroken clouds.10 mph71%29.56 "Hg2 mi
10:00 am91 °FBroken clouds.7 mph71%29.56 "Hg2 mi
9:30 am90 °FBroken clouds.3 mph71%29.56 "Hg2 mi
9:00 am88 °FThunderstorms. Broken clouds.2 mph79%29.56 "Hg2 mi
8:00 am88 °FThunderstorms. Broken clouds.3 mph89%29.56 "Hg2 mi
7:00 am88 °FFog.2 mph89%29.56 "Hg2 mi
6:30 am86 °FFog.2 mph94%29.53 "Hg2 mi
6:00 am86 °FFog.No wind94%29.53 "Hg2 mi
5:30 am86 °FFog.No wind94%29.53 "Hg2 mi
5:00 am86 °FFog.2 mph89%29.53 "Hg2 mi
4:30 am86 °FFog.2 mph89%29.53 "Hg2 mi
4:00 am86 °FFog.2 mph89%29.53 "Hg2 mi
3:30 am86 °FFog.2 mph89%29.53 "Hg2 mi
3:00 am86 °FFog.2 mph89%29.53 "Hg2 mi
Weather by CustomWeather, © 2019

See weather overview